Weather Roundup
Issued by NWS Chicago, IL

Home | Current Version | Previous Version | Graphics & Text | Print | Product List | Glossary On
Versions: 1 2 3 4 5 6 7 8 9 10 11 12 13 14 15 16 17 18 19 20 21 22 23 24 25 26 27 28 29 30 31 32 33 34 35 36 37 38 39 40 41 42 43 44 45 46 47 48 49 50
000
NZUS59 KLOT 181609
HRRLOT

CHICAGO AREA WEATHER ROUNDUP
NATIONAL WEATHER SERVICE CHICAGO/ROMEOVILLE IL
1100 AM CDT FRI AUG 18 2017

NOTE: "FAIR" INDICATES FEW OR NO CLOUDS BELOW 12,000 FEET WITH NO
SIGNIFICANT WEATHER AND/OR OBSTRUCTIONS TO VISIBILITY.

* THESE STATIONS ARE NOT UNDER NWS QUALITY CONTROL. THEY ALSO MAY NOT
  REPORT WEATHER SUCH AS PRECIPITATION OR FOG.

ILZ005-006-012>014-019>023-181700-
NORTHEAST ILLINOIS

CITY           SKY/WX    TMP DP  RH WIND       PRES   REMARKS
OHARE          PTSUNNY   72  60  66 W14       29.88R
MIDWAY         CLOUDY    74  61  63 NW10      29.88R
AURORA         PTSUNNY   72  63  73 W10G16    29.89F
LANSING*       CLOUDY    74  60  61 W13G18    29.88F
JOLIET*        PTSUNNY   74  63  66 W6        29.89F
WAUKEGAN       CLOUDY    71  60  68 NW9       29.86R
DUPAGE AIRPORT CLOUDY    71  63  75 W12       29.88F
WHEELING       CLOUDY    72  62  71 NW8       29.88S
MORRIS*        MOSUNNY   74  62  66 NW13G18   29.89F
LEWIS AIRPORT* PTSUNNY   74  61  65 NW12      29.89F
NORTHERLY ISL    N/A     72  59  63 W13         N/A
$$

WIZ051-052-058>065-066-070>072-181700-
SOUTHEAST WISCONSIN

CITY           SKY/WX    TMP DP  RH WIND       PRES   REMARKS
MILWAUKEE      PTSUNNY   71  59  65 NW14      29.84R
KENOSHA*       CLOUDY    70  59  68 W13G21    29.86R
RACINE*        CLOUDY    70  62  76 VRB7      29.86S
WAUKESHA       CLOUDY    66  57  72 W15G21    29.86R
WEST BEND      CLOUDY    66  59  77 W12       29.83F
$$

INZ001>003-010>013-019-020-181700-
NORTHWEST INDIANA

CITY           SKY/WX    TMP DP  RH WIND       PRES   REMARKS
GARY*          PTSUNNY   75  63  64 W13       29.89R
MICHIGAN CITY* NOT AVBL
RENSSELAER*    NOT AVBL
VALPARAISO     CLOUDY    73  64  73 W12       29.90R
$$

LMZ740>746-181700-
SOUTHERN LAKE MICHIGAN

STATION/POSITION TIME  SKY/WX   TEMP WIND        PRES    VSBY
                                AIR  DIR/SP/G
                 (UTC)          (F)  (DEG/KT/KT) (MB)    (MI)
HARRISON CRIB    1540            71  280/ 13/ 16   N/A
BURNHAM HARBOR   NOT AVBL
CALUMET HARBOR   1542            73  270/  5/ 15 1011.4R
BURNS HARBOR     1540            71  290/ 11/ 14 1012.5R
MICHIGAN CITY    1540            70  270/ 11/ 14   N/A
$$

ABBREVIATIONS USED IN REMARKS
   TC - TEMPERATURE IN CELSIUS
  WCI - WIND CHILL INDEX
   HX - HEAT INDEX
  VSB - VISIBILITY
$$




USA.gov is the U.S. government's official web portal to all federal, state and local government web resources and services.